This demonstration page uses our WeatherBlox Daily Observations layout. Learn more.

Left ArrowRight Arrow

39.29038, -76.61219

Hourly Observations for February 21, 2019

Temp ( °F °C ) Dew Point ( °F °C ) Humidity (%) Winds ( mph kmh ) Pressure ( in mb ) Visibility ( mi km ) Precip ( " mm )
12:54 am 00:54 undefined 34 1.1 31 -0.6 89 89 undefined N/A 30.01 1016 N/A 0.00 0.00
1:54 am 01:54 undefined 34 1.1 31 -0.6 89 89 undefined N/A 30.01 1016 N/A 0.00 0.00
2:54 am 02:54 undefined 34 1.1 31 -0.6 89 89 undefined N/A 29.98 1015 N/A 0.00 0.00
3:54 am 03:54 undefined 35 1.7 31 -0.6 85 85 undefined N/A 29.98 1015 N/A 0.00 0.00
4:54 am 04:54 undefined 34 1.1 31 -0.6 89 89 undefined N/A 29.98 1015 N/A 0.00 0.00
5:54 am 05:54 undefined 34 1.1 31 -0.6 89 89 undefined N/A 30.00 1016 N/A 0.00 0.00
6:54 am 06:54 undefined 35 1.7 31 -0.6 85 85 undefined N/A 30.00 1016 N/A 0.00 0.00
7:54 am 07:54 undefined 35 1.7 31 -0.6 85 85 undefined N/A 30.01 1016 N/A 0.00 0.00
8:54 am 08:54 undefined 37 2.8 32 0 82 82 undefined N/A 30.07 1018 N/A 0.00 0.00
9:54 am 09:54 undefined 41 5 34 1.1 76 76 undefined N/A 30.08 1019 N/A 0.00 0.00
10:54 am 10:54 undefined 45 7.2 36 2.2 71 71 undefined N/A 30.09 1019 N/A 0.00 0.00
11:54 am 11:54 undefined 48 8.9 39 3.9 71 71 undefined N/A 30.08 1019 N/A 0.00 0.00
12:54 pm 12:54 undefined 53 11.7 37 2.8 55 55 undefined N/A 30.06 1018 N/A 0.00 0.00
1:54 pm 13:54 undefined 57 13.9 30 -1.1 36 36 undefined N/A 30.04 1017 N/A 0.00 0.00
2:54 pm 14:54 undefined 56 13.3 27 -2.8 33 33 undefined N/A 30.01 1016 N/A 0.00 0.00
3:54 pm 15:54 undefined 56 13.3 27 -2.8 33 33 undefined N/A 30.02 1017 N/A 0.00 0.00
4:54 pm 16:54 undefined 56 13.3 28 -2.2 34 34 undefined N/A 30.04 1017 N/A 0.00 0.00
5:54 pm 17:54 undefined 55 12.8 28 -2.2 35 35 undefined N/A 30.08 1019 N/A 0.00 0.00
6:54 pm 18:54 undefined 54 12.2 28 -2.2 37 37 undefined N/A 30.11 1020 N/A 0.00 0.00
7:54 pm 19:54 undefined 53 11.7 26 -3.3 35 35 undefined N/A 30.13 1020 N/A 0.00 0.00
8:54 pm 20:54 undefined 52 11.1 26 -3.3 37 37 undefined N/A 30.16 1021 N/A 0.00 0.00
9:54 pm 21:54 undefined 52 11.1 23 -5 32 32 undefined N/A 30.17 1022 N/A 0.00 0.00
10:54 pm 22:54 undefined 50 10 26 -3.3 39 39 undefined N/A 30.20 1023 N/A 0.00 0.00
11:54 pm 23:54 undefined 51 10.6 23 -5 33 33 undefined N/A 30.22 1023 N/A 0.00 0.00

Powered by AerisWeather